• In Hungary
  • List of Countries
  • For 7 days
  • Water Temperature
  • Satellite Maps
  • Weather Map
  • News
  • Weather Widgets
  • user-avatar
    Login

    Hourly Weather Lankaran

    Today, 21 August, Monday

    Time Temperature Precipitation Wind Pressure Humidity
    00:00 +18°C° 0 mm 2 mps 635 mmHg 67%
    01:00 +19°C° 0 mm 1 mps 635 mmHg 65%
    02:00 +19°C° 0 mm 1 mps 635 mmHg 63%
    03:00 +19°C° 0 mm 1 mps 634 mmHg 62%
    04:00 +19°C° 0 mm 1 mps 635 mmHg 59%
    05:00 +19°C° 0 mm 1 mps 635 mmHg 55%
    06:00 +20°C° 0 mm 1 mps 635 mmHg 52%
    07:00 +22°C° 0 mm 1 mps 635 mmHg 46%
    08:00 +24°C° 0 mm 2 mps 636 mmHg 40%
    09:00 +26°C° 0 mm 2 mps 636 mmHg 34%
    10:00 +27°C° 0 mm 3 mps 636 mmHg 32%
    11:00 +28°C° 0 mm 3 mps 636 mmHg 29%
    12:00 +29°C° 0 mm 3 mps 636 mmHg 27%
    13:00 +29°C° 0 mm 3 mps 636 mmHg 27%
    14:00 +30°C° 0 mm 3 mps 636 mmHg 28%
    15:00 +30°C° 0 mm 4 mps 635 mmHg 28%
    16:00 +28°C° 0 mm 3 mps 635 mmHg 33%
    17:00 +26°C° 0 mm 3 mps 634 mmHg 37%
    18:00 +25°C° 0 mm 2 mps 634 mmHg 42%
    19:00 +23°C° 0 mm 2 mps 634 mmHg 46%
    20:00 +21°C° 0 mm 2 mps 633 mmHg 50%
    21:00 +21°C° 0 mm 1 mps 633 mmHg 55%
    22:00 +20°C° 0 mm 1 mps 633 mmHg 54%
    23:00 +20°C° 0 mm 1 mps 633 mmHg 54%

    Tomorrow, 22 August, Tuesday

    Time Temperature Precipitation Wind Pressure Humidity
    00:00 +20°C° 0 mm 1 mps 633 mmHg 53%
    01:00 +20°C° 0 mm 1 mps 633 mmHg 53%
    02:00 +19°C° 0 mm 1 mps 633 mmHg 53%
    03:00 +19°C° 0 mm 1 mps 632 mmHg 53%
    04:00 +19°C° 0 mm 1 mps 633 mmHg 51%
    05:00 +20°C° 0 mm 1 mps 633 mmHg 49%
    06:00 +20°C° 0 mm 1 mps 633 mmHg 47%
    07:00 +23°C° 0 mm 1 mps 634 mmHg 42%
    08:00 +25°C° 0 mm 1 mps 634 mmHg 36%
    09:00 +27°C° 0 mm 2 mps 635 mmHg 31%
    10:00 +28°C° 0 mm 2 mps 635 mmHg 29%
    11:00 +29°C° 0 mm 3 mps 635 mmHg 27%
    12:00 +30°C° 0 mm 3 mps 635 mmHg 24%
    13:00 +30°C° 0 mm 3 mps 635 mmHg 24%
    14:00 +31°C° 0 mm 3 mps 634 mmHg 24%
    15:00 +32°C° 0 mm 4 mps 634 mmHg 23%
    16:00 +29°C° 0 mm 3 mps 633 mmHg 28%
    17:00 +27°C° 0 mm 3 mps 633 mmHg 33%
    18:00 +26°C° 0 mm 2 mps 632 mmHg 37%
    19:00 +24°C° 0 mm 2 mps 632 mmHg 42%
    20:00 +23°C° 0 mm 2 mps 632 mmHg 47%
    21:00 +21°C° 0 mm 1 mps 632 mmHg 52%
    22:00 +21°C° 0 mm 1 mps 632 mmHg 51%
    23:00 +20°C° 0 mm 1 mps 632 mmHg 51%

    Day after tomorrow, 23 August, Wednesday

    Time Temperature Precipitation Wind Pressure Humidity
    00:00 +20°C° 0 mm 1 mps 632 mmHg 50%
    01:00 +20°C° 0 mm 1 mps 632 mmHg 50%
    02:00 +19°C° 0 mm 1 mps 632 mmHg 50%
    03:00 +19°C° 0 mm 1 mps 632 mmHg 49%
    04:00 +20°C° 0 mm 1 mps 632 mmHg 49%
    05:00 +20°C° 0 mm 1 mps 633 mmHg 48%
    06:00 +20°C° 0 mm 1 mps 633 mmHg 48%
    07:00 +23°C° 0 mm 1 mps 634 mmHg 42%
    08:00 +25°C° 0 mm 2 mps 635 mmHg 36%
    09:00 +28°C° 0 mm 3 mps 635 mmHg 31%
    10:00 +29°C° 0 mm 3 mps 635 mmHg 28%
    11:00 +30°C° 0 mm 3 mps 636 mmHg 25%
    12:00 +31°C° 0 mm 3 mps 636 mmHg 21%
    13:00 +31°C° 0 mm 3 mps 635 mmHg 21%
    14:00 +32°C° 0 mm 4 mps 635 mmHg 21%
    15:00 +32°C° 0 mm 4 mps 635 mmHg 22%
    16:00 +29°C° 0 mm 3 mps 634 mmHg 27%
    17:00 +27°C° 0 mm 3 mps 634 mmHg 32%
    18:00 +26°C° 0 mm 2 mps 634 mmHg 37%
    19:00 +24°C° 0 mm 2 mps 634 mmHg 42%
    20:00 +21°C° 0 mm 2 mps 634 mmHg 46%
    21:00 +21°C° 0 mm 1 mps 634 mmHg 51%
    22:00 +21°C° 0 mm 1 mps 634 mmHg 50%
    23:00 +20°C° 0 mm 1 mps 634 mmHg 49%

    24 August, Thursday

    Time Temperature Precipitation Wind Pressure Humidity
    00:00 +20°C° 0 mm 1 mps 634 mmHg 48%
    01:00 +20°C° 0 mm 1 mps 634 mmHg 48%
    02:00 +18°C° 0 mm 2 mps 634 mmHg 49%
    03:00 +18°C° 0 mm 2 mps 634 mmHg 50%
    04:00 +18°C° 0 mm 2 mps 635 mmHg 51%
    05:00 +18°C° 0 mm 2 mps 635 mmHg 51%
    06:00 +18°C° 0 mm 2 mps 636 mmHg 52%
    07:00 +21°C° 0 mm 3 mps 636 mmHg 44%
    08:00 +24°C° 0 mm 3 mps 637 mmHg 36%
    09:00 +26°C° 0 mm 4 mps 638 mmHg 28%
    10:00 +27°C° 0 mm 4 mps 638 mmHg 25%
    11:00 +29°C° 0 mm 4 mps 638 mmHg 22%
    12:00 +30°C° 0 mm 5 mps 639 mmHg 19%
    13:00 +30°C° 0 mm 5 mps 638 mmHg 19%
    14:00 +29°C° 0 mm 5 mps 638 mmHg 19%
    15:00 +29°C° 0 mm 4 mps 638 mmHg 19%
    16:00 +27°C° 0 mm 4 mps 638 mmHg 23%
    17:00 +25°C° 0 mm 3 mps 637 mmHg 28%
    18:00 +24°C° 0 mm 2 mps 637 mmHg 32%
    19:00 +21°C° 0 mm 2 mps 637 mmHg 36%
    20:00 +19°C° 0 mm 2 mps 637 mmHg 41%
    21:00 +18°C° 0 mm 2 mps 637 mmHg 45%
    22:00 +19°C° 0 mm 1 mps 636 mmHg 41%
    23:00 +18°C° 0 mm 1 mps 636 mmHg 37%

    25 August, Friday

    Time Temperature Precipitation Wind Pressure Humidity
    00:00 +18°C° 0 mm 1 mps 636 mmHg 33%
    01:00 +18°C° 0 mm 1 mps 636 mmHg 32%
    02:00 +16°C° 0 mm 1 mps 636 mmHg 30%
    03:00 +16°C° 0 mm 1 mps 636 mmHg 29%
    04:00 +16°C° 0 mm 1 mps 636 mmHg 28%
    05:00 +18°C° 0 mm 1 mps 637 mmHg 28%
    06:00 +17°C° 0 mm 2 mps 637 mmHg 27%
    07:00 +20°C° 0 mm 2 mps 638 mmHg 24%
    08:00 +23°C° 0 mm 2 mps 639 mmHg 20%
    09:00 +26°C° 0 mm 3 mps 639 mmHg 17%
    10:00 +27°C° 0 mm 3 mps 639 mmHg 17%
    11:00 +28°C° 0 mm 3 mps 639 mmHg 16%
    12:00 +29°C° 0 mm 4 mps 639 mmHg 16%
    13:00 +29°C° 0 mm 4 mps 639 mmHg 16%
    14:00 +29°C° 0 mm 4 mps 638 mmHg 17%
    15:00 +29°C° 0 mm 4 mps 638 mmHg 17%
    16:00 +27°C° 0 mm 3 mps 638 mmHg 21%
    17:00 +26°C° 0 mm 3 mps 637 mmHg 25%
    18:00 +24°C° 0 mm 2 mps 637 mmHg 29%
    19:00 +21°C° 0 mm 2 mps 637 mmHg 30%
    20:00 +20°C° 0 mm 2 mps 637 mmHg 31%
    21:00 +19°C° 0 mm 1 mps 636 mmHg 33%
    22:00 +19°C° 0 mm 1 mps 636 mmHg 29%
    23:00 +19°C° 0 mm 1 mps 636 mmHg 26%

    26 August, Saturday

    Time Temperature Precipitation Wind Pressure Humidity
    00:00 +18°C° 0 mm 1 mps 636 mmHg 22%
    01:00 +18°C° 0 mm 1 mps 636 mmHg 20%
    02:00 +16°C° 0 mm 1 mps 636 mmHg 19%
    03:00 +16°C° 0 mm 1 mps 636 mmHg 18%
    04:00 +16°C° 0 mm 1 mps 636 mmHg 18%
    05:00 +17°C° 0 mm 2 mps 636 mmHg 18%
    06:00 +17°C° 0 mm 2 mps 637 mmHg 18%
    07:00 +19°C° 0 mm 2 mps 637 mmHg 17%
    08:00 +23°C° 0 mm 2 mps 638 mmHg 17%
    09:00 +25°C° 0 mm 3 mps 639 mmHg 17%
    10:00 +26°C° 0 mm 3 mps 638 mmHg 17%
    11:00 +27°C° 0 mm 3 mps 638 mmHg 17%
    12:00 +28°C° 0 mm 4 mps 638 mmHg 17%
    13:00 +28°C° 0 mm 4 mps 638 mmHg 18%
    14:00 +28°C° 0 mm 4 mps 637 mmHg 19%
    15:00 +28°C° 0 mm 4 mps 637 mmHg 20%
    16:00 +26°C° 0 mm 3 mps 637 mmHg 25%
    17:00 +24°C° 0 mm 3 mps 636 mmHg 31%
    18:00 +21°C° 0 mm 2 mps 636 mmHg 36%
    19:00 +19°C° 0 mm 2 mps 636 mmHg 39%
    20:00 +18°C° 0 mm 2 mps 635 mmHg 43%
    21:00 +16°C° 0 mm 2 mps 635 mmHg 47%
    22:00 +16°C° 0 mm 2 mps 635 mmHg 44%
    23:00 +16°C° 0 mm 2 mps 635 mmHg 41%
    Show more